カタログに戻る

THORAD DELTA 1 DEB

運用中SSO
NORAD 42612·DEBRIS·🇺🇸 United States

打ち上げ Nov 15, 1974 から Vandenberg Space Force Base

Loading…

次のパス (今後24時間)

TLE

経年Source: Space-Track

元期: Sep 6, 2026, 05:07 UTC

1 42612U 74089GD  26249.21331579  .00000021  00000-0  33740-3 0  9990
2 42612 101.6219 249.6652 0083298 246.7407 112.4889 12.69909884572947

AllMySatでTHORAD DELTA 1 DEBをリアルタイム追跡

Download on the App Store